owner,sensor,date,latitude,longitude,vertical_datum,wind_speed,wind_to_direction,wind_speed_of_gust,qcFlag 
FIT,ioos:station:wmo:SIPF1:1,2019-10-01T00:45:00Z,27.8620,-80.4450,1.0,8.2,50.0,-9999.0,'11111222,11111222,11111222' 
FIT,ioos:station:wmo:SIPF1:1,2019-10-01T01:45:00Z,27.8620,-80.4450,1.0,9.3,60.0,-9999.0,'11111222,11111222,11111222' 
FIT,ioos:station:wmo:SIPF1:1,2019-10-01T02:45:00Z,27.8620,-80.4450,1.0,9.3,80.0,-9999.0,'11111222,11111222,11111222' 
FIT,ioos:station:wmo:SIPF1:1,2019-10-01T03:45:00Z,27.8620,-80.4450,1.0,9.8,70.0,-9999.0,'11111222,11111222,11111222' 
FIT,ioos:station:wmo:SIPF1:1,2019-10-01T04:45:00Z,27.8620,-80.4450,1.0,9.3,70.0,-9999.0,'11111222,11111222,11111222' 
FIT,ioos:station:wmo:SIPF1:1,2019-10-01T05:45:00Z,27.8620,-80.4450,1.0,8.8,70.0,-9999.0,'11111222,11111222,11111222' 
FIT,ioos:station:wmo:SIPF1:1,2019-10-01T06:45:00Z,27.8620,-80.4450,1.0,8.8,70.0,-9999.0,'11111222,11111222,11111222' 
FIT,ioos:station:wmo:SIPF1:1,2019-10-01T07:45:00Z,27.8620,-80.4450,1.0,9.3,70.0,-9999.0,'11111222,11111222,11111222' 
FIT,ioos:station:wmo:SIPF1:1,2019-10-01T08:45:00Z,27.8620,-80.4450,1.0,8.2,70.0,-9999.0,'11111222,11111222,11111222' 
FIT,ioos:station:wmo:SIPF1:1,2019-10-01T09:45:00Z,27.8620,-80.4450,1.0,9.3,60.0,-9999.0,'11111222,11111222,11111222' 
FIT,ioos:station:wmo:SIPF1:1,2019-10-01T10:45:00Z,27.8620,-80.4450,1.0,8.2,70.0,-9999.0,'11111222,11111222,11111222' 
FIT,ioos:station:wmo:SIPF1:1,2019-10-01T11:45:00Z,27.8620,-80.4450,1.0,9.3,80.0,-9999.0,'11111222,11111222,11111222' 
FIT,ioos:station:wmo:SIPF1:1,2019-10-01T12:45:00Z,27.8620,-80.4450,1.0,9.8,80.0,-9999.0,'11111222,11111222,11111222' 
FIT,ioos:station:wmo:SIPF1:1,2019-10-01T13:45:00Z,27.8620,-80.4450,1.0,9.3,70.0,-9999.0,'11111222,11111222,11111222' 
FIT,ioos:station:wmo:SIPF1:1,2019-10-01T14:15:00Z,27.8620,-80.4450,1.0,8.2,70.0,-9999.0,'11111222,11111222,11111222' 
FIT,ioos:station:wmo:SIPF1:1,2019-10-01T15:45:00Z,27.8620,-80.4450,1.0,7.7,70.0,-9999.0,'11111222,11111222,11111222' 
FIT,ioos:station:wmo:SIPF1:1,2019-10-01T16:45:00Z,27.8620,-80.4450,1.0,8.8,60.0,-9999.0,'11111222,11111222,11111222' 
FIT,ioos:station:wmo:SIPF1:1,2019-10-01T17:45:00Z,27.8620,-80.4450,1.0,8.8,60.0,-9999.0,'11111222,11111222,11111222' 
FIT,ioos:station:wmo:SIPF1:1,2019-10-01T18:45:00Z,27.8620,-80.4450,1.0,9.3,60.0,-9999.0,'11111222,11111222,11111222' 
FIT,ioos:station:wmo:SIPF1:1,2019-10-01T19:45:00Z,27.8620,-80.4450,1.0,9.3,50.0,-9999.0,'11111222,11111222,11111222' 
FIT,ioos:station:wmo:SIPF1:1,2019-10-01T20:45:00Z,27.8620,-80.4450,1.0,8.8,60.0,-9999.0,'11111222,11111222,11111222' 
FIT,ioos:station:wmo:SIPF1:1,2019-10-01T21:45:00Z,27.8620,-80.4450,1.0,9.3,60.0,-9999.0,'11111222,11111222,11111222' 
FIT,ioos:station:wmo:SIPF1:1,2019-10-01T22:45:00Z,27.8620,-80.4450,1.0,8.8,60.0,-9999.0,'11111222,11111222,11111222' 
FIT,ioos:station:wmo:SIPF1:1,2019-10-01T23:45:00Z,27.8620,-80.4450,1.0,9.3,60.0,-9999.0,'11111222,11111222,11111222' 
FIT,ioos:station:wmo:SIPF1:1,2019-10-02T00:45:00Z,27.8620,-80.4450,1.0,9.8,60.0,-9999.0,'11111222,11111222,11111222' 
FIT,ioos:station:wmo:SIPF1:1,2019-10-02T01:45:00Z,27.8620,-80.4450,1.0,9.8,70.0,-9999.0,'11111222,11111222,11111222' 
FIT,ioos:station:wmo:SIPF1:1,2019-10-02T02:30:00Z,27.8620,-80.4450,1.0,10.3,80.0,-9999.0,'11111222,11111222,11111222' 
FIT,ioos:station:wmo:SIPF1:1,2019-10-02T03:45:00Z,27.8620,-80.4450,1.0,9.3,80.0,-9999.0,'11111222,11111222,11111222' 
FIT,ioos:station:wmo:SIPF1:1,2019-10-02T05:00:00Z,27.8620,-80.4450,1.0,9.3,80.0,-9999.0,'11111222,11111222,11111222' 
FIT,ioos:station:wmo:SIPF1:1,2019-10-02T05:45:00Z,27.8620,-80.4450,1.0,8.8,90.0,-9999.0,'11111222,11111222,11111222' 
FIT,ioos:station:wmo:SIPF1:1,2019-10-02T06:45:00Z,27.8620,-80.4450,1.0,8.2,90.0,-9999.0,'11111222,11111222,11111222' 
FIT,ioos:station:wmo:SIPF1:1,2019-10-02T07:45:00Z,27.8620,-80.4450,1.0,8.8,80.0,-9999.0,'11111222,11111222,11111222' 
FIT,ioos:station:wmo:SIPF1:1,2019-10-02T08:45:00Z,27.8620,-80.4450,1.0,9.3,80.0,-9999.0,'11111222,11111222,11111222' 
FIT,ioos:station:wmo:SIPF1:1,2019-10-02T09:45:00Z,27.8620,-80.4450,1.0,7.7,80.0,-9999.0,'11111222,11111222,11111222' 
FIT,ioos:station:wmo:SIPF1:1,2019-10-02T10:45:00Z,27.8620,-80.4450,1.0,7.2,90.0,-9999.0,'11111222,11111222,11111222' 
FIT,ioos:station:wmo:SIPF1:1,2019-10-02T11:45:00Z,27.8620,-80.4450,1.0,7.2,80.0,-9999.0,'11111222,11111222,11111222' 
FIT,ioos:station:wmo:SIPF1:1,2019-10-02T12:45:00Z,27.8620,-80.4450,1.0,7.2,80.0,-9999.0,'11111222,11111222,11111222' 
FIT,ioos:station:wmo:SIPF1:1,2019-10-02T13:45:00Z,27.8620,-80.4450,1.0,8.2,70.0,-9999.0,'11111222,11111222,11111222' 
FIT,ioos:station:wmo:SIPF1:1,2019-10-02T14:45:00Z,27.8620,-80.4450,1.0,8.2,80.0,-9999.0,'11111222,11111222,11111222' 
FIT,ioos:station:wmo:SIPF1:1,2019-10-02T15:45:00Z,27.8620,-80.4450,1.0,7.2,70.0,-9999.0,'11111222,11111222,11111222' 
FIT,ioos:station:wmo:SIPF1:1,2019-10-02T16:45:00Z,27.8620,-80.4450,1.0,6.7,60.0,-9999.0,'11111222,11111222,11111222' 
FIT,ioos:station:wmo:SIPF1:1,2019-10-02T17:45:00Z,27.8620,-80.4450,1.0,6.7,80.0,-9999.0,'11111222,11111222,11111222' 
FIT,ioos:station:wmo:SIPF1:1,2019-10-02T18:45:00Z,27.8620,-80.4450,1.0,7.7,70.0,-9999.0,'11111222,11111222,11111222' 
FIT,ioos:station:wmo:SIPF1:1,2019-10-02T19:45:00Z,27.8620,-80.4450,1.0,7.2,80.0,-9999.0,'11111222,11111222,11111222' 
FIT,ioos:station:wmo:SIPF1:1,2019-10-02T20:45:00Z,27.8620,-80.4450,1.0,6.7,70.0,-9999.0,'11111222,11111222,11111222' 
FIT,ioos:station:wmo:SIPF1:1,2019-10-02T21:45:00Z,27.8620,-80.4450,1.0,6.7,70.0,-9999.0,'11111222,11111222,11111222' 
FIT,ioos:station:wmo:SIPF1:1,2019-10-02T22:45:00Z,27.8620,-80.4450,1.0,6.2,70.0,-9999.0,'11111222,11111222,11111222' 
FIT,ioos:station:wmo:SIPF1:1,2019-10-02T23:45:00Z,27.8620,-80.4450,1.0,7.2,70.0,-9999.0,'11111222,11111222,11111222' 
FIT,ioos:station:wmo:SIPF1:1,2019-10-03T00:45:00Z,27.8620,-80.4450,1.0,7.7,80.0,-9999.0,'11111222,11111222,11111222' 
FIT,ioos:station:wmo:SIPF1:1,2019-10-03T01:45:00Z,27.8620,-80.4450,1.0,6.7,90.0,-9999.0,'11111222,11111222,11111222' 
FIT,ioos:station:wmo:SIPF1:1,2019-10-03T02:45:00Z,27.8620,-80.4450,1.0,6.7,90.0,-9999.0,'11111222,11111222,11111222' 
FIT,ioos:station:wmo:SIPF1:1,2019-10-03T03:45:00Z,27.8620,-80.4450,1.0,5.7,80.0,-9999.0,'11111222,11111222,11111222' 
FIT,ioos:station:wmo:SIPF1:1,2019-10-03T04:45:00Z,27.8620,-80.4450,1.0,5.7,100.0,-9999.0,'11111222,11111222,11111222' 
FIT,ioos:station:wmo:SIPF1:1,2019-10-03T05:45:00Z,27.8620,-80.4450,1.0,5.7,90.0,-9999.0,'11111222,11111222,11111222' 
FIT,ioos:station:wmo:SIPF1:1,2019-10-03T06:45:00Z,27.8620,-80.4450,1.0,5.1,100.0,-9999.0,'11111222,11111222,11111222' 
FIT,ioos:station:wmo:SIPF1:1,2019-10-03T07:45:00Z,27.8620,-80.4450,1.0,5.7,90.0,-9999.0,'11111222,11111222,11111222' 
FIT,ioos:station:wmo:SIPF1:1,2019-10-03T08:45:00Z,27.8620,-80.4450,1.0,5.1,90.0,-9999.0,'11111222,11111222,11111222' 
FIT,ioos:station:wmo:SIPF1:1,2019-10-03T09:45:00Z,27.8620,-80.4450,1.0,5.1,80.0,-9999.0,'11111222,11111222,11111222' 
FIT,ioos:station:wmo:SIPF1:1,2019-10-03T10:45:00Z,27.8620,-80.4450,1.0,4.6,80.0,-9999.0,'11111222,11111222,11111222' 
FIT,ioos:station:wmo:SIPF1:1,2019-10-03T11:45:00Z,27.8620,-80.4450,1.0,5.1,80.0,-9999.0,'11111222,11111222,11111222' 
FIT,ioos:station:wmo:SIPF1:1,2019-10-03T12:45:00Z,27.8620,-80.4450,1.0,5.1,70.0,-9999.0,'11111222,11111222,11111222' 
FIT,ioos:station:wmo:SIPF1:1,2019-10-03T13:45:00Z,27.8620,-80.4450,1.0,5.1,60.0,-9999.0,'11111222,11111222,11111222' 
FIT,ioos:station:wmo:SIPF1:1,2019-10-03T14:45:00Z,27.8620,-80.4450,1.0,4.6,80.0,-9999.0,'11111222,11111222,11111222' 
FIT,ioos:station:wmo:SIPF1:1,2019-10-03T15:45:00Z,27.8620,-80.4450,1.0,4.6,70.0,-9999.0,'11111222,11111222,11111222' 
FIT,ioos:station:wmo:SIPF1:1,2019-10-03T16:45:00Z,27.8620,-80.4450,1.0,4.6,80.0,-9999.0,'11111222,11111222,11111222' 
FIT,ioos:station:wmo:SIPF1:1,2019-10-03T17:45:00Z,27.8620,-80.4450,1.0,5.1,80.0,-9999.0,'11111222,11111222,11111222' 
FIT,ioos:station:wmo:SIPF1:1,2019-10-03T18:45:00Z,27.8620,-80.4450,1.0,4.1,70.0,-9999.0,'11111222,11111222,11111222' 
FIT,ioos:station:wmo:SIPF1:1,2019-10-03T19:45:00Z,27.8620,-80.4450,1.0,4.6,80.0,-9999.0,'11111222,11111222,11111222' 
FIT,ioos:station:wmo:SIPF1:1,2019-10-03T20:45:00Z,27.8620,-80.4450,1.0,5.7,70.0,-9999.0,'11111222,11111222,11111222' 
FIT,ioos:station:wmo:SIPF1:1,2019-10-03T21:45:00Z,27.8620,-80.4450,1.0,5.1,70.0,-9999.0,'11111222,11111222,11111222' 
FIT,ioos:station:wmo:SIPF1:1,2019-10-03T22:45:00Z,27.8620,-80.4450,1.0,5.1,60.0,-9999.0,'11111222,11111222,11111222' 
FIT,ioos:station:wmo:SIPF1:1,2019-10-03T23:45:00Z,27.8620,-80.4450,1.0,6.7,80.0,-9999.0,'11111222,11111222,11111222' 
FIT,ioos:station:wmo:SIPF1:1,2019-10-04T00:45:00Z,27.8620,-80.4450,1.0,6.2,90.0,-9999.0,'11111222,11111222,11111222' 
FIT,ioos:station:wmo:SIPF1:1,2019-10-04T01:45:00Z,27.8620,-80.4450,1.0,6.2,100.0,-9999.0,'11111222,11111222,11111222' 
FIT,ioos:station:wmo:SIPF1:1,2019-10-04T02:45:00Z,27.8620,-80.4450,1.0,6.2,100.0,-9999.0,'11111222,11111222,11111222' 
FIT,ioos:station:wmo:SIPF1:1,2019-10-04T03:45:00Z,27.8620,-80.4450,1.0,5.7,90.0,-9999.0,'11111222,11111222,11111222' 
FIT,ioos:station:wmo:SIPF1:1,2019-10-04T04:45:00Z,27.8620,-80.4450,1.0,5.1,100.0,-9999.0,'11111222,11111222,11111222' 
FIT,ioos:station:wmo:SIPF1:1,2019-10-04T05:45:00Z,27.8620,-80.4450,1.0,4.6,110.0,-9999.0,'11111222,11111222,11111222' 
FIT,ioos:station:wmo:SIPF1:1,2019-10-04T06:45:00Z,27.8620,-80.4450,1.0,3.6,120.0,-9999.0,'11111222,11111222,11111222' 
FIT,ioos:station:wmo:SIPF1:1,2019-10-04T07:45:00Z,27.8620,-80.4450,1.0,3.1,120.0,-9999.0,'11111222,11111222,11111222' 
FIT,ioos:station:wmo:SIPF1:1,2019-10-04T08:45:00Z,27.8620,-80.4450,1.0,2.6,110.0,-9999.0,'11111222,11111222,11111222' 
FIT,ioos:station:wmo:SIPF1:1,2019-10-04T09:45:00Z,27.8620,-80.4450,1.0,3.1,80.0,-9999.0,'11111222,11111222,11111222' 
FIT,ioos:station:wmo:SIPF1:1,2019-10-04T10:45:00Z,27.8620,-80.4450,1.0,3.1,80.0,-9999.0,'11111222,11111222,11111222' 
FIT,ioos:station:wmo:SIPF1:1,2019-10-04T11:45:00Z,27.8620,-80.4450,1.0,2.1,280.0,-9999.0,'11111222,11111222,11111222' 
FIT,ioos:station:wmo:SIPF1:1,2019-10-04T12:45:00Z,27.8620,-80.4450,1.0,1.0,290.0,-9999.0,'11111222,11111222,11111222' 
FIT,ioos:station:wmo:SIPF1:1,2019-10-04T13:45:00Z,27.8620,-80.4450,1.0,1.0,360.0,-9999.0,'11111222,11144222,11111222' 
FIT,ioos:station:wmo:SIPF1:1,2019-10-04T14:45:00Z,27.8620,-80.4450,1.0,3.1,40.0,-9999.0,'11111222,11111222,11111222' 
FIT,ioos:station:wmo:SIPF1:1,2019-10-04T15:45:00Z,27.8620,-80.4450,1.0,4.1,30.0,-9999.0,'11111222,11111222,11111222' 
FIT,ioos:station:wmo:SIPF1:1,2019-10-04T16:45:00Z,27.8620,-80.4450,1.0,3.1,30.0,-9999.0,'11111222,11111222,11111222' 
FIT,ioos:station:wmo:SIPF1:1,2019-10-04T17:45:00Z,27.8620,-80.4450,1.0,4.1,10.0,-9999.0,'11111222,11111222,11111222' 
FIT,ioos:station:wmo:SIPF1:1,2019-10-04T19:00:00Z,27.8620,-80.4450,1.0,2.1,70.0,-9999.0,'11111222,11111222,11111222' 
FIT,ioos:station:wmo:SIPF1:1,2019-10-04T19:45:00Z,27.8620,-80.4450,1.0,4.6,90.0,-9999.0,'11111222,11111222,11111222' 
FIT,ioos:station:wmo:SIPF1:1,2019-10-04T20:45:00Z,27.8620,-80.4450,1.0,5.1,90.0,-9999.0,'11111222,11111222,11111222' 
FIT,ioos:station:wmo:SIPF1:1,2019-10-04T21:45:00Z,27.8620,-80.4450,1.0,5.1,80.0,-9999.0,'11111222,11111222,11111222' 
FIT,ioos:station:wmo:SIPF1:1,2019-10-04T22:45:00Z,27.8620,-80.4450,1.0,5.1,80.0,-9999.0,'11111222,11111222,11111222' 
FIT,ioos:station:wmo:SIPF1:1,2019-10-04T23:45:00Z,27.8620,-80.4450,1.0,5.1,80.0,-9999.0,'11111222,11111222,11111222' 
FIT,ioos:station:wmo:SIPF1:1,2019-10-05T00:45:00Z,27.8620,-80.4450,1.0,5.7,90.0,-9999.0,'11111222,11111222,11111222' 
FIT,ioos:station:wmo:SIPF1:1,2019-10-05T01:45:00Z,27.8620,-80.4450,1.0,5.7,90.0,-9999.0,'11111222,11111222,11111222' 
FIT,ioos:station:wmo:SIPF1:1,2019-10-05T02:45:00Z,27.8620,-80.4450,1.0,6.2,80.0,-9999.0,'11111222,11111222,11111222' 
FIT,ioos:station:wmo:SIPF1:1,2019-10-05T03:45:00Z,27.8620,-80.4450,1.0,6.2,90.0,-9999.0,'11111222,11111222,11111222' 
FIT,ioos:station:wmo:SIPF1:1,2019-10-05T04:45:00Z,27.8620,-80.4450,1.0,5.7,100.0,-9999.0,'11111222,11111222,11111222' 
FIT,ioos:station:wmo:SIPF1:1,2019-10-05T05:45:00Z,27.8620,-80.4450,1.0,5.1,90.0,-9999.0,'11111222,11111222,11111222' 
FIT,ioos:station:wmo:SIPF1:1,2019-10-05T06:45:00Z,27.8620,-80.4450,1.0,6.2,100.0,-9999.0,'11111222,11111222,11111222' 
FIT,ioos:station:wmo:SIPF1:1,2019-10-05T07:45:00Z,27.8620,-80.4450,1.0,6.2,90.0,-9999.0,'11111222,11111222,11111222' 
FIT,ioos:station:wmo:SIPF1:1,2019-10-05T08:45:00Z,27.8620,-80.4450,1.0,6.2,80.0,-9999.0,'11111222,11111222,11111222' 
FIT,ioos:station:wmo:SIPF1:1,2019-10-05T09:45:00Z,27.8620,-80.4450,1.0,5.7,70.0,-9999.0,'11111222,11111222,11111222' 
FIT,ioos:station:wmo:SIPF1:1,2019-10-05T10:30:00Z,27.8620,-80.4450,1.0,6.2,80.0,-9999.0,'11111222,11111222,11111222' 
FIT,ioos:station:wmo:SIPF1:1,2019-10-05T11:45:00Z,27.8620,-80.4450,1.0,7.2,80.0,-9999.0,'11111222,11111222,11111222' 
FIT,ioos:station:wmo:SIPF1:1,2019-10-05T12:45:00Z,27.8620,-80.4450,1.0,6.7,80.0,-9999.0,'11111222,11111222,11111222' 
FIT,ioos:station:wmo:SIPF1:1,2019-10-05T13:45:00Z,27.8620,-80.4450,1.0,7.7,80.0,-9999.0,'11111222,11111222,11111222' 
FIT,ioos:station:wmo:SIPF1:1,2019-10-05T14:45:00Z,27.8620,-80.4450,1.0,7.7,90.0,-9999.0,'11111222,11111222,11111222' 
FIT,ioos:station:wmo:SIPF1:1,2019-10-05T15:45:00Z,27.8620,-80.4450,1.0,7.7,90.0,-9999.0,'11111222,11111222,11111222' 
FIT,ioos:station:wmo:SIPF1:1,2019-10-05T16:45:00Z,27.8620,-80.4450,1.0,7.2,90.0,-9999.0,'11111222,11111222,11111222' 
FIT,ioos:station:wmo:SIPF1:1,2019-10-05T17:45:00Z,27.8620,-80.4450,1.0,7.2,90.0,-9999.0,'11111222,11111222,11111222' 
FIT,ioos:station:wmo:SIPF1:1,2019-10-05T18:45:00Z,27.8620,-80.4450,1.0,7.2,90.0,-9999.0,'11111222,11111222,11111222' 
FIT,ioos:station:wmo:SIPF1:1,2019-10-05T19:45:00Z,27.8620,-80.4450,1.0,7.7,90.0,-9999.0,'11111222,11111222,11111222' 
FIT,ioos:station:wmo:SIPF1:1,2019-10-05T20:45:00Z,27.8620,-80.4450,1.0,7.7,90.0,-9999.0,'11111222,11111222,11111222' 
FIT,ioos:station:wmo:SIPF1:1,2019-10-05T21:45:00Z,27.8620,-80.4450,1.0,8.2,80.0,-9999.0,'11111222,11111222,11111222' 
FIT,ioos:station:wmo:SIPF1:1,2019-10-05T22:45:00Z,27.8620,-80.4450,1.0,8.2,90.0,-9999.0,'11111222,11111222,11111222' 
FIT,ioos:station:wmo:SIPF1:1,2019-10-05T23:45:00Z,27.8620,-80.4450,1.0,7.7,90.0,-9999.0,'11111222,11111222,11111222' 
FIT,ioos:station:wmo:SIPF1:1,2019-10-06T00:45:00Z,27.8620,-80.4450,1.0,7.2,80.0,-9999.0,'11111222,11111222,11111222' 
FIT,ioos:station:wmo:SIPF1:1,2019-10-06T01:45:00Z,27.8620,-80.4450,1.0,8.8,80.0,-9999.0,'11111222,11111222,11111222' 
FIT,ioos:station:wmo:SIPF1:1,2019-10-06T02:45:00Z,27.8620,-80.4450,1.0,8.8,80.0,-9999.0,'11111222,11111222,11111222' 
FIT,ioos:station:wmo:SIPF1:1,2019-10-06T03:45:00Z,27.8620,-80.4450,1.0,7.2,80.0,-9999.0,'11111222,11111222,11111222' 
FIT,ioos:station:wmo:SIPF1:1,2019-10-06T04:45:00Z,27.8620,-80.4450,1.0,6.7,80.0,-9999.0,'11111222,11111222,11111222' 
FIT,ioos:station:wmo:SIPF1:1,2019-10-06T05:45:00Z,27.8620,-80.4450,1.0,8.8,80.0,-9999.0,'11111222,11111222,11111222' 
FIT,ioos:station:wmo:SIPF1:1,2019-10-06T06:45:00Z,27.8620,-80.4450,1.0,7.7,80.0,-9999.0,'11111222,11111222,11111222' 
FIT,ioos:station:wmo:SIPF1:1,2019-10-06T07:45:00Z,27.8620,-80.4450,1.0,7.2,80.0,-9999.0,'11111222,11111222,11111222' 
FIT,ioos:station:wmo:SIPF1:1,2019-10-06T08:45:00Z,27.8620,-80.4450,1.0,8.2,80.0,-9999.0,'11111222,11111222,11111222' 
FIT,ioos:station:wmo:SIPF1:1,2019-10-06T09:45:00Z,27.8620,-80.4450,1.0,7.7,70.0,-9999.0,'11111222,11111222,11111222' 
FIT,ioos:station:wmo:SIPF1:1,2019-10-06T10:45:00Z,27.8620,-80.4450,1.0,8.8,80.0,-9999.0,'11111222,11111222,11111222' 
FIT,ioos:station:wmo:SIPF1:1,2019-10-06T11:45:00Z,27.8620,-80.4450,1.0,7.7,80.0,-9999.0,'11111222,11111222,11111222' 
FIT,ioos:station:wmo:SIPF1:1,2019-10-06T12:45:00Z,27.8620,-80.4450,1.0,9.8,80.0,-9999.0,'11111222,11111222,11111222' 
FIT,ioos:station:wmo:SIPF1:1,2019-10-06T13:45:00Z,27.8620,-80.4450,1.0,9.8,80.0,-9999.0,'11111222,11111222,11111222' 
FIT,ioos:station:wmo:SIPF1:1,2019-10-06T14:45:00Z,27.8620,-80.4450,1.0,9.8,90.0,-9999.0,'11111222,11111222,11111222' 
FIT,ioos:station:wmo:SIPF1:1,2019-10-06T15:45:00Z,27.8620,-80.4450,1.0,10.3,80.0,-9999.0,'11111222,11111222,11111222' 
FIT,ioos:station:wmo:SIPF1:1,2019-10-06T16:45:00Z,27.8620,-80.4450,1.0,10.3,70.0,-9999.0,'11111222,11111222,11111222' 
FIT,ioos:station:wmo:SIPF1:1,2019-10-06T17:45:00Z,27.8620,-80.4450,1.0,10.3,60.0,-9999.0,'11111222,11111222,11111222' 
FIT,ioos:station:wmo:SIPF1:1,2019-10-06T18:45:00Z,27.8620,-80.4450,1.0,9.8,60.0,-9999.0,'11111222,11111222,11111222' 
FIT,ioos:station:wmo:SIPF1:1,2019-10-06T19:45:00Z,27.8620,-80.4450,1.0,9.8,60.0,-9999.0,'11111222,11111222,11111222' 
FIT,ioos:station:wmo:SIPF1:1,2019-10-06T20:45:00Z,27.8620,-80.4450,1.0,9.8,70.0,-9999.0,'11111222,11111222,11111222' 
FIT,ioos:station:wmo:SIPF1:1,2019-10-06T21:45:00Z,27.8620,-80.4450,1.0,8.2,60.0,-9999.0,'11111222,11111222,11111222' 
FIT,ioos:station:wmo:SIPF1:1,2019-10-06T22:45:00Z,27.8620,-80.4450,1.0,7.7,80.0,-9999.0,'11111222,11111222,11111222' 
FIT,ioos:station:wmo:SIPF1:1,2019-10-06T23:45:00Z,27.8620,-80.4450,1.0,9.8,90.0,-9999.0,'11111222,11111222,11111222' 
FIT,ioos:station:wmo:SIPF1:1,2019-10-07T00:45:00Z,27.8620,-80.4450,1.0,9.3,80.0,-9999.0,'11111222,11111222,11111222' 
FIT,ioos:station:wmo:SIPF1:1,2019-10-07T01:45:00Z,27.8620,-80.4450,1.0,9.8,80.0,-9999.0,'11111222,11111222,11111222' 
FIT,ioos:station:wmo:SIPF1:1,2019-10-07T02:45:00Z,27.8620,-80.4450,1.0,9.3,80.0,-9999.0,'11111222,11111222,11111222' 
FIT,ioos:station:wmo:SIPF1:1,2019-10-07T03:45:00Z,27.8620,-80.4450,1.0,9.3,100.0,-9999.0,'11111222,11111222,11111222' 
FIT,ioos:station:wmo:SIPF1:1,2019-10-07T04:45:00Z,27.8620,-80.4450,1.0,6.2,80.0,-9999.0,'11111222,11111222,11111222' 
FIT,ioos:station:wmo:SIPF1:1,2019-10-07T05:45:00Z,27.8620,-80.4450,1.0,7.7,90.0,-9999.0,'11111222,11111222,11111222' 
FIT,ioos:station:wmo:SIPF1:1,2019-10-07T06:45:00Z,27.8620,-80.4450,1.0,8.8,110.0,-9999.0,'11111222,11111222,11111222' 
FIT,ioos:station:wmo:SIPF1:1,2019-10-07T07:45:00Z,27.8620,-80.4450,1.0,8.2,120.0,-9999.0,'11111222,11111222,11111222' 
FIT,ioos:station:wmo:SIPF1:1,2019-10-07T08:45:00Z,27.8620,-80.4450,1.0,8.2,110.0,-9999.0,'11111222,11111222,11111222' 
FIT,ioos:station:wmo:SIPF1:1,2019-10-07T09:45:00Z,27.8620,-80.4450,1.0,9.3,120.0,-9999.0,'11111222,11111222,11111222' 
FIT,ioos:station:wmo:SIPF1:1,2019-10-07T10:45:00Z,27.8620,-80.4450,1.0,9.8,100.0,-9999.0,'11111222,11111222,11111222' 
FIT,ioos:station:wmo:SIPF1:1,2019-10-07T11:45:00Z,27.8620,-80.4450,1.0,9.3,120.0,-9999.0,'11111222,11111222,11111222' 
FIT,ioos:station:wmo:SIPF1:1,2019-10-07T12:45:00Z,27.8620,-80.4450,1.0,9.8,120.0,-9999.0,'11111222,11111222,11111222' 
FIT,ioos:station:wmo:SIPF1:1,2019-10-07T15:00:00Z,27.8620,-80.4450,1.0,7.7,110.0,-9999.0,'11111222,11111222,11111222' 
FIT,ioos:station:wmo:SIPF1:1,2019-10-07T15:45:00Z,27.8620,-80.4450,1.0,8.2,120.0,-9999.0,'11111222,11111222,11111222' 
FIT,ioos:station:wmo:SIPF1:1,2019-10-07T16:45:00Z,27.8620,-80.4450,1.0,8.2,110.0,-9999.0,'11111222,11111222,11111222' 
FIT,ioos:station:wmo:SIPF1:1,2019-10-07T17:45:00Z,27.8620,-80.4450,1.0,9.3,110.0,-9999.0,'11111222,11111222,11111222' 
FIT,ioos:station:wmo:SIPF1:1,2019-10-07T18:45:00Z,27.8620,-80.4450,1.0,8.2,100.0,-9999.0,'11111222,11111222,11111222' 
FIT,ioos:station:wmo:SIPF1:1,2019-10-07T19:45:00Z,27.8620,-80.4450,1.0,8.2,110.0,-9999.0,'11111222,11111222,11111222' 
FIT,ioos:station:wmo:SIPF1:1,2019-10-07T20:30:00Z,27.8620,-80.4450,1.0,9.3,100.0,-9999.0,'11111222,11111222,11111222' 
FIT,ioos:station:wmo:SIPF1:1,2019-10-07T21:45:00Z,27.8620,-80.4450,1.0,8.2,110.0,-9999.0,'11111222,11111222,11111222' 
FIT,ioos:station:wmo:SIPF1:1,2019-10-07T22:45:00Z,27.8620,-80.4450,1.0,9.3,90.0,-9999.0,'11111222,11111222,11111222' 
FIT,ioos:station:wmo:SIPF1:1,2019-10-07T23:45:00Z,27.8620,-80.4450,1.0,3.6,80.0,-9999.0,'11111222,11111222,11111222' 
FIT,ioos:station:wmo:SIPF1:1,2019-10-08T00:45:00Z,27.8620,-80.4450,1.0,5.1,90.0,-9999.0,'11111222,11111222,11111222' 
FIT,ioos:station:wmo:SIPF1:1,2019-10-08T01:45:00Z,27.8620,-80.4450,1.0,4.1,60.0,-9999.0,'11111222,11111222,11111222' 
FIT,ioos:station:wmo:SIPF1:1,2019-10-08T02:45:00Z,27.8620,-80.4450,1.0,4.1,140.0,-9999.0,'11111222,11111222,11111222' 
FIT,ioos:station:wmo:SIPF1:1,2019-10-08T03:45:00Z,27.8620,-80.4450,1.0,3.1,160.0,-9999.0,'11111222,11111222,11111222' 
FIT,ioos:station:wmo:SIPF1:1,2019-10-08T04:45:00Z,27.8620,-80.4450,1.0,2.6,140.0,-9999.0,'11111222,11111222,11111222' 
FIT,ioos:station:wmo:SIPF1:1,2019-10-08T05:45:00Z,27.8620,-80.4450,1.0,3.1,170.0,-9999.0,'11111222,11111222,11111222' 
FIT,ioos:station:wmo:SIPF1:1,2019-10-08T06:45:00Z,27.8620,-80.4450,1.0,2.1,200.0,-9999.0,'11111222,11111222,11111222' 
FIT,ioos:station:wmo:SIPF1:1,2019-10-09T14:45:00Z,27.8620,-80.4450,1.0,2.6,110.0,-9999.0,'11111222,11111222,11111222' 
FIT,ioos:station:wmo:SIPF1:1,2019-10-09T15:45:00Z,27.8620,-80.4450,1.0,5.1,70.0,-9999.0,'11111222,11111222,11111222' 
FIT,ioos:station:wmo:SIPF1:1,2019-10-09T16:45:00Z,27.8620,-80.4450,1.0,2.1,110.0,-9999.0,'11111222,11111222,11111222' 
FIT,ioos:station:wmo:SIPF1:1,2019-10-09T17:45:00Z,27.8620,-80.4450,1.0,3.6,50.0,-9999.0,'11111222,11111222,11111222' 
FIT,ioos:station:wmo:SIPF1:1,2019-10-09T18:45:00Z,27.8620,-80.4450,1.0,10.3,30.0,-9999.0,'11111222,11111222,11111222' 
FIT,ioos:station:wmo:SIPF1:1,2019-10-09T19:45:00Z,27.8620,-80.4450,1.0,8.8,40.0,-9999.0,'11111222,11111222,11111222' 
FIT,ioos:station:wmo:SIPF1:1,2019-10-09T20:45:00Z,27.8620,-80.4450,1.0,8.2,40.0,-9999.0,'11111222,11111222,11111222' 
FIT,ioos:station:wmo:SIPF1:1,2019-10-09T21:45:00Z,27.8620,-80.4450,1.0,7.7,50.0,-9999.0,'11111222,11111222,11111222' 
FIT,ioos:station:wmo:SIPF1:1,2019-10-09T22:45:00Z,27.8620,-80.4450,1.0,7.7,50.0,-9999.0,'11111222,11111222,11111222' 
FIT,ioos:station:wmo:SIPF1:1,2019-10-10T01:45:00Z,27.8620,-80.4450,1.0,4.1,50.0,-9999.0,'11111222,11111222,11111222' 
FIT,ioos:station:wmo:SIPF1:1,2019-10-10T02:45:00Z,27.8620,-80.4450,1.0,3.1,60.0,-9999.0,'11111222,11111222,11111222' 
FIT,ioos:station:wmo:SIPF1:1,2019-10-10T03:45:00Z,27.8620,-80.4450,1.0,4.6,80.0,-9999.0,'11111222,11111222,11111222' 
FIT,ioos:station:wmo:SIPF1:1,2019-10-10T04:45:00Z,27.8620,-80.4450,1.0,3.1,40.0,-9999.0,'11111222,11111222,11111222' 
FIT,ioos:station:wmo:SIPF1:1,2019-10-10T05:45:00Z,27.8620,-80.4450,1.0,3.1,40.0,-9999.0,'11111222,11111222,11111222' 
FIT,ioos:station:wmo:SIPF1:1,2019-10-10T06:45:00Z,27.8620,-80.4450,1.0,3.1,320.0,-9999.0,'11111222,11111222,11111222' 
FIT,ioos:station:wmo:SIPF1:1,2019-10-10T07:45:00Z,27.8620,-80.4450,1.0,5.1,50.0,-9999.0,'11111222,11111222,11111222' 
FIT,ioos:station:wmo:SIPF1:1,2019-10-10T08:45:00Z,27.8620,-80.4450,1.0,5.7,60.0,-9999.0,'11111222,11111222,11111222' 
FIT,ioos:station:wmo:SIPF1:1,2019-10-10T09:45:00Z,27.8620,-80.4450,1.0,5.7,10.0,-9999.0,'11111222,11111222,11111222' 
FIT,ioos:station:wmo:SIPF1:1,2019-10-10T10:45:00Z,27.8620,-80.4450,1.0,5.1,50.0,-9999.0,'11111222,11111222,11111222' 
FIT,ioos:station:wmo:SIPF1:1,2019-10-10T11:45:00Z,27.8620,-80.4450,1.0,5.7,30.0,-9999.0,'11111222,11111222,11111222' 
FIT,ioos:station:wmo:SIPF1:1,2019-10-10T12:45:00Z,27.8620,-80.4450,1.0,7.2,50.0,-9999.0,'11111222,11111222,11111222' 
FIT,ioos:station:wmo:SIPF1:1,2019-10-10T13:45:00Z,27.8620,-80.4450,1.0,6.7,40.0,-9999.0,'11111222,11111222,11111222' 
FIT,ioos:station:wmo:SIPF1:1,2019-10-10T14:45:00Z,27.8620,-80.4450,1.0,7.2,40.0,-9999.0,'11111222,11111222,11111222' 
FIT,ioos:station:wmo:SIPF1:1,2019-10-10T15:45:00Z,27.8620,-80.4450,1.0,8.8,30.0,-9999.0,'11111222,11111222,11111222' 
FIT,ioos:station:wmo:SIPF1:1,2019-10-10T16:30:00Z,27.8620,-80.4450,1.0,9.3,40.0,-9999.0,'11111222,11111222,11111222' 
FIT,ioos:station:wmo:SIPF1:1,2019-10-10T17:45:00Z,27.8620,-80.4450,1.0,10.3,40.0,-9999.0,'11111222,11111222,11111222' 
FIT,ioos:station:wmo:SIPF1:1,2019-10-10T18:45:00Z,27.8620,-80.4450,1.0,10.8,40.0,-9999.0,'11111222,11111222,11111222' 
FIT,ioos:station:wmo:SIPF1:1,2019-10-10T19:45:00Z,27.8620,-80.4450,1.0,10.3,50.0,-9999.0,'11111222,11111222,11111222' 